Regional Weather Roundup
Issued by NWS

Home | Current Version | Previous Version | Graphics & Text | Print | Product List | Glossary On
Versions: 1 2 3 4 5 6 7 8 9 10 11 12 13 14 15 16 17 18 19 20 21 22 23 24 25 26 27 28 29 30 31 32 33 34 35 36 37 38 39 40 41 42 43 44 45 46 47 48 49 50
000
ASUS43 KFSD 251010
RWRSD

WEATHER ROUNDUP FOR SOUTH DAKOTA
NATIONAL WEATHER SERVICE SIOUX FALLS SD
500 AM CDT SAT MAR 25 2017

NOTE: "FAIR" INDICATES FEW OR NO CLOUDS BELOW 12,000 FEET WITH NO
SIGNIFICANT WEATHER AND/OR OBSTRUCTIONS TO VISIBILITY.


SDZ001>005-009-010-012>017-251100-
NORTHWEST AND NORTH CENTRAL SOUTH DAKOTA

CITY           SKY/WX    TMP DP  RH WIND       PRES   REMARKS
BUFFALO          N/A     39  31  72 S10       29.84R
FAITH            N/A     31  30  96 SE15      29.99F WCI  20
MOBRIDGE       CLOUDY    28  24  85 SE8       30.05F WCI  20
$$

SDZ012>016-024>037-041>051-057-063-072>074-251100-
SOUTHWEST AND SOUTH CENTRAL SOUTH DAKOTA

CITY           SKY/WX    TMP DP  RH WIND       PRES   REMARKS
RAPID CTY ARPT CLOUDY    36  28  73 S14       29.97F
PIERRE         CLOUDY    28  26  92 SE8       30.06F FOG     WCI  20
CUSTER         CLOUDY    35  23  61 SW7       29.99F WCI  29
ELLSWORTH AFB  CLOUDY    39  28  64 S13       29.94F
PHILIP         CLOUDY    26  24  92 E3        30.03S
PINE RIDGE     CLOUDY    39  30  70 CALM      30.02F
SPEARFISH      FAIR      50  25  37 E7        29.87F
WINNER         FOG       33  32  96 E12       30.08F VSB 1/4 WCI  24
$$

SDZ004>011-016>023-039-040-251100-
NORTHEAST SOUTH DAKOTA

CITY           SKY/WX    TMP DP  RH WIND       PRES   REMARKS
ABERDEEN       CLOUDY    29  26  89 CALM      30.14S
WATERTOWN      CLOUDY    32  30  92 E8        30.11F WCI  25
BROOKINGS      CLOUDY    32  30  92 NE8       30.11S WCI  25
SISSETON         N/A     28  28 100 N3        30.15F
$$

SDZ017-020-022-023-036>040-048>070-251100-
SOUTHEAST SOUTH DAKOTA

CITY           SKY/WX    TMP DP  RH WIND       PRES   REMARKS
SIOUX FALLS    CLOUDY    35  34  96 NE14      30.10S FOG     WCI  26
HURON          CLOUDY    36  33  89 E6        30.13S
CHAMBERLAIN    CLOUDY    36  35  96 E6        30.10F
MITCHELL       CLOUDY    36  32  85 NE12      30.11F
YANKTON        CLOUDY    36  34  93 NE9       30.09S
$$

ABBREVIATIONS USED IN REMARKS
   TC - TEMPERATURE IN CELSIUS
  WCI - WIND CHILL INDEX
   HX - HEAT INDEX
  VSB - VISIBILITY




USA.gov is the U.S. government's official web portal to all federal, state and local government web resources and services.